map of ZAZ home
Great Circle Mapper logo
ZAZ - Airport
Location
City:  Zaragoza, Aragón, Spain
Name:Zaragoza Airport
Old (Alt.):Zaragoza AB
ICAO / IATA:LEZG / ZAZ

Details
Type:Airport (Aerodrome, Airfield)
Use:Public/Civil, Military
Latitude:41°39'58"N (41.666242)
Longitude:1°02'30"W (-1.041552)
Datum:WGS 1984
Elevation:863 ft (263 m)
Runways:2
Longest:12198 × 148 ft (3718 × 45 m), paved

Time
Time Zone:UTC+1 (DST+2)
Local Time:

Weather
METAR:LEZG 010600Z 12001KT 2500 BR -DZ FEW003 BKN005 BKN009 14/13 Q1023
TAF:LEZG 010500Z 0106/0206 VRB04KT 6000 SCT016 TX22/0115Z TN12/0106Z PROB40
TEMPO 0106/0110 3000 BR BKN010 PROB30
TEMPO 0106/0108 0500 FG VV002 PROB40
TEMPO 0122/0206 3000 BR SCT004

Related Locations
Nearby:
Farthest:NZPO: 12283 mi / 19767 km
Porangahau, NZ

Find:

   beyond  
but within

Other Information
Maps:
NOTAMs:
Links:
Sources:

  
flag of Spain
flag of Aragón
  

Airport Diagram

Airport diagram for ZAZ

Airport diagram (OBSOLETE) from NGA

Sectional Chart

Flight Planning
at skyvector.com

Satellite Image

Google Maps Satellite View

 

Copyright © 2004-2014 Karl L. Swartz. All rights reserved.
The Great Circle Mapper name and logo are trademarks of the Great Circle Mapper.
All other trademarks mentioned herein belong to their respective owners.
Please see credits for attibutions and further copyright information.

  Follow gcmap on Facebook Follow gcmap on Twitter

hCard Microformat

Geo Microformat